Find WHDW 14-05

NORAD ID: 66919 Int'l Des: 2025-285 Owner: ZXW Country: CN Constellation: xingwang operational
LEOCIRCULAR

实时位置

正在加载3D地球...

关于 WHDW 14-05

正在加载描述...

即将过境

Passes for default location (London). Set your location on the main map for personalized predictions.

高度历史

Loading altitude history...

两行轨道根数

1 66919U 25285E 26106.42023440 -.00000095 00000-0 62996-4 0 9998
2 66919 50.0096 7.4756 0000698 76.5019 283.5931 13.29334567 17858
Epoch: Apr 16, 2026 • Age: 22 hours

当前状态

高度 1150.6 km
速度 7.28 km/s
星下点 31.38°N, 178.31°W
发射日期 Dec 6, 2025
运行时间 0.3 years
类型 other

技术详情

分类 Payload
质量 700.00 kg
干质量 700.00 kg
总质量 700.00 kg
长度 3.00 m
直径 1.00 m
跨度 10.00 m
形状 Box + 2 Pan
制造商 CAST
平台类型 Xingwang C
阶段状态 In Orbit
所有者/国家 ZXW/CN

Most Searched